| time (UTC) | temp C | wind direction | speed KPH | gust KPH | rain 1hr cm | rain 24hr cm | rain mn cm | humidity % | barometer mb |
| 20260509033053 | 12 | 0 | 1.6 | 14.5 | 0.00 | 0.20 | 0.20 | 92 | 1012.3 |
| 20260509031559 | 12 | 0 | 1.6 | 9.7 | 0.00 | 0.20 | 0.20 | 92 | 1012.7 |
| 20260509030057 | 12 | 0 | 1.6 | 9.7 | 0.00 | 0.20 | 0.20 | 92 | 1012.7 |
| 20260509024555 | 12 | 184 | 3.2 | 12.9 | 0.00 | 0.20 | 0.20 | 92 | 1012.9 |
| 20260509023050 | 12 | 204 | 3.2 | 9.7 | 0.00 | 0.20 | 0.20 | 92 | 1012.9 |
| 20260509021547 | 12 | 198 | 4.8 | 12.9 | 0.00 | 0.20 | 0.20 | 92 | 1012.8 |
| 20260509020052 | 12 | 190 | 1.6 | 9.7 | 0.00 | 0.20 | 0.20 | 92 | 1012.9 |
| 20260509014550 | 12 | 189 | 1.6 | 9.7 | 0.00 | 0.20 | 0.20 | 92 | 1012.8 |
| 20260509013055 | 12 | 175 | 3.2 | 14.5 | 0.00 | 0.20 | 0.20 | 92 | 1012.8 |
| 20260509011558 | 12 | 206 | 3.2 | 16.1 | 0.00 | 0.20 | 0.20 | 92 | 1012.8 |
| 20260509010050 | 12 | 164 | 4.8 | 17.7 | 0.00 | 0.20 | 0.20 | 92 | 1012.7 |
| 20260509004604 | 12 | 189 | 3.2 | 9.7 | 0.00 | 0.20 | 0.20 | 92 | 1012.7 |
| 20260509003053 | 12 | 177 | 3.2 | 9.7 | 0.00 | 0.20 | 0.20 | 91 | 1013.0 |
| 20260509001551 | 12 | 175 | 3.2 | 9.7 | 0.00 | 0.20 | 0.20 | 91 | 1012.9 |
| 20260509000049 | 12 | 0 | 1.6 | 8.0 | 0.00 | 0.20 | 0.20 | 91 | 1013.1 |
| 20260508234548 | 12 | 123 | 4.8 | 12.9 | 0.00 | 0.20 | 0.20 | 90 | 1013.1 |
| 20260508233050 | 12 | 0 | 3.2 | 8.0 | 0.00 | 0.20 | 0.20 | 90 | 1013.1 |
| 20260508231545 | 12 | 0 | 0.0 | 1.6 | 0.05 | 0.20 | 0.20 | 89 | 1013.2 |
| 20260508230053 | 12 | 202 | 1.6 | 11.3 | 0.08 | 0.20 | 0.20 | 89 | 1013.1 |
| 20260508224552 | 12 | 0 | 0.0 | 4.8 | 0.08 | 0.18 | 0.18 | 88 | 1013.0 |
| 20260508223055 | 13 | 165 | 0.0 | 4.8 | 0.10 | 0.18 | 0.18 | 87 | 1013.3 |
| 20260508221548 | 13 | 0 | 1.6 | 8.0 | 0.08 | 0.15 | 0.15 | 86 | 1013.3 |
| 20260508214600 | 14 | 0 | 0.0 | 3.2 | 0.08 | 0.08 | 0.08 | 82 | 1013.5 |
| 20260508213050 | 14 | 0 | 0.0 | 3.2 | 0.03 | 0.05 | 0.05 | 80 | 1013.3 |
| 20260508211551 | 15 | 0 | 0.0 | 4.8 | 0.03 | 0.05 | 0.05 | 77 | 1013.1 |
| 20260508210051 | 15 | 0 | 0.0 | 8.0 | 0.00 | 0.03 | 0.03 | 74 | 1013.2 |
| 20260508204551 | 15 | 248 | 1.6 | 6.4 | 0.00 | 0.00 | 0.00 | 71 | 1013.4 |
| 20260508203051 | 16 | 0 | 0.0 | 12.9 | 0.00 | 0.00 | 0.00 | 67 | 1013.5 |
| 20260508201557 | 16 | 194 | 1.6 | 12.9 | 0.00 | 0.00 | 0.00 | 64 | 1013.8 |
| 20260508200056 | 16 | 273 | 1.6 | 14.5 | 0.00 | 0.00 | 0.00 | 61 | 1013.8 |
| 20260508194609 | 16 | 192 | 3.2 | 14.5 | 0.00 | 0.00 | 0.00 | 58 | 1013.8 |
| 20260508193105 | 17 | 244 | 3.2 | 17.7 | 0.00 | 0.00 | 0.00 | 57 | 1014.0 |
| 20260508191551 | 17 | 236 | 6.4 | 22.5 | 0.00 | 0.00 | 0.00 | 55 | 1014.0 |
| 20260508190050 | 17 | 132 | 6.4 | 22.5 | 0.00 | 0.00 | 0.00 | 54 | 1014.2 |
| 20260508184602 | 18 | 263 | 3.2 | 20.9 | 0.00 | 0.00 | 0.00 | 53 | 1014.1 |
| 20260508183053 | 18 | 188 | 4.8 | 22.5 | 0.00 | 0.00 | 0.00 | 54 | 1014.1 |
| 20260508181603 | 18 | 188 | 6.4 | 24.1 | 0.00 | 0.00 | 0.00 | 53 | 1014.2 |
| 20260508180049 | 18 | 155 | 4.8 | 22.5 | 0.00 | 0.00 | 0.00 | 53 | 1014.0 |
| 20260508174547 | 19 | 159 | 8.0 | 20.9 | 0.00 | 0.00 | 0.00 | 52 | 1014.2 |
| 20260508173053 | 18 | 241 | 4.8 | 24.1 | 0.00 | 0.00 | 0.00 | 53 | 1014.5 |
| 20260508171554 | 18 | 192 | 4.8 | 30.6 | 0.00 | 0.00 | 0.00 | 52 | 1014.9 |
| 20260508170052 | 17 | 222 | 8.0 | 22.5 | 0.00 | 0.00 | 0.00 | 54 | 1015.3 |
| 20260508164553 | 17 | 205 | 3.2 | 20.9 | 0.00 | 0.00 | 0.00 | 54 | 1015.5 |
| 20260508163054 | 17 | 159 | 8.0 | 20.9 | 0.00 | 0.00 | 0.00 | 54 | 1015.9 |
| 20260508161551 | 17 | 164 | 1.6 | 12.9 | 0.00 | 0.00 | 0.00 | 54 | 1016.1 |
| 20260508160129 | 17 | 0 | 3.2 | 16.1 | 0.00 | 0.00 | 0.00 | 56 | 1016.2 |
| 20260508154557 | 16 | 251 | 6.4 | 17.7 | 0.00 | 0.00 | 0.00 | 57 | 1016.4 |
| 20260508153051 | 16 | 209 | 3.2 | 16.1 | 0.00 | 0.00 | 0.00 | 57 | 1016.5 |
| 20260508151555 | 16 | 164 | 4.8 | 17.7 | 0.00 | 0.00 | 0.00 | 57 | 1016.5 |
| 20260508150050 | 15 | 200 | 3.2 | 17.7 | 0.00 | 0.00 | 0.00 | 60 | 1016.4 |
| 20260508144548 | 15 | 192 | 6.4 | 20.9 | 0.00 | 0.00 | 0.00 | 60 | 1016.6 |
| 20260508143059 | 14 | 183 | 3.2 | 14.5 | 0.00 | 0.00 | 0.00 | 61 | 1016.6 |
| 20260508141601 | 14 | 0 | 1.6 | 16.1 | 0.00 | 0.00 | 0.00 | 61 | 1017.0 |
| 20260508140055 | 13 | 216 | 3.2 | 16.1 | 0.00 | 0.00 | 0.00 | 62 | 1016.9 |
| 20260508134555 | 13 | 188 | 3.2 | 16.1 | 0.00 | 0.00 | 0.00 | 63 | 1017.0 |
| 20260508133058 | 12 | 301 | 3.2 | 14.5 | 0.00 | 0.00 | 0.00 | 67 | 1016.9 |
| 20260508131546 | 11 | 184 | 3.2 | 9.7 | 0.00 | 0.00 | 0.00 | 70 | 1016.9 |
| 20260508130057 | 10 | 0 | 3.2 | 9.7 | 0.00 | 0.00 | 0.00 | 71 | 1017.0 |
| 20260508124556 | 10 | 0 | 0.0 | 8.0 | 0.00 | 0.00 | 0.00 | 74 | 1017.0 |
| 20260508123054 | 10 | 196 | 1.6 | 4.8 | 0.00 | 0.00 | 0.00 | 76 | 1017.0 |
| 20260508121604 | 9 | 0 | 0.0 | 0.0 | 0.00 | 0.00 | 0.00 | 76 | 1017.1 |
| 20260508120050 | 9 | 0 | 0.0 | 0.0 | 0.00 | 0.00 | 0.00 | 76 | 1017.0 |
| 20260508114554 | 9 | 0 | 0.0 | 0.0 | 0.00 | 0.00 | 0.00 | 76 | 1016.8 |
| 20260508113049 | 9 | 174 | 0.0 | 4.8 | 0.00 | 0.00 | 0.00 | 76 | 1016.7 |
| 20260508111553 | 9 | 180 | 0.0 | 3.2 | 0.00 | 0.00 | 0.00 | 76 | 1016.6 |
| 20260508110055 | 9 | 0 | 0.0 | 1.6 | 0.00 | 0.00 | 0.00 | 76 | 1016.5 |
| 20260508104552 | 9 | 0 | 0.0 | 3.2 | 0.00 | 0.00 | 0.00 | 76 | 1016.5 |
| 20260508103055 | 9 | 0 | 0.0 | 4.8 | 0.00 | 0.00 | 0.00 | 75 | 1016.3 |
| 20260508101555 | 9 | 0 | 1.6 | 6.4 | 0.00 | 0.00 | 0.00 | 75 | 1016.3 |
| 20260508100052 | 10 | 165 | 0.0 | 6.4 | 0.00 | 0.00 | 0.00 | 74 | 1016.1 |
| 20260508094604 | 10 | 0 | 0.0 | 4.8 | 0.00 | 0.00 | 0.00 | 69 | 1016.3 |
| 20260508093053 | 10 | 197 | 0.0 | 4.8 | 0.00 | 0.00 | 0.00 | 68 | 1015.8 |
| 20260508091558 | 10 | 0 | 0.0 | 8.0 | 0.00 | 0.00 | 0.00 | 68 | 1015.8 |
| 20260508090051 | 10 | 0 | 1.6 | 11.3 | 0.00 | 0.00 | 0.00 | 67 | 1016.1 |
| 20260508084550 | 10 | 0 | 3.2 | 11.3 | 0.00 | 0.00 | 0.00 | 65 | 1016.1 |
| 20260508083127 | 10 | 0 | 0.0 | 11.3 | 0.00 | 0.00 | 0.00 | 65 | 1016.3 |
| 20260508081556 | 10 | 196 | 1.6 | 6.4 | 0.00 | 0.00 | 0.00 | 65 | 1016.5 |
| 20260508080056 | 10 | 175 | 0.0 | 8.0 | 0.00 | 0.00 | 0.00 | 65 | 1016.5 |
| 20260508074550 | 10 | 192 | 0.0 | 6.4 | 0.00 | 0.00 | 0.00 | 64 | 1016.3 |
| 20260508073055 | 10 | 182 | 3.2 | 9.7 | 0.00 | 0.00 | 0.00 | 64 | 1016.4 |
| 20260508071556 | 10 | 175 | 3.2 | 12.9 | 0.00 | 0.00 | 0.00 | 64 | 1016.2 |
| 20260508070057 | 10 | 160 | 3.2 | 12.9 | 0.00 | 0.00 | 0.00 | 64 | 1016.4 |
| 20260508064607 | 10 | 165 | 4.8 | 11.3 | 0.00 | 0.00 | 0.00 | 65 | 1016.5 |
| 20260508063055 | 10 | 209 | 3.2 | 11.3 | 0.00 | 0.00 | 0.00 | 66 | 1016.7 |
| 20260508061551 | 10 | 172 | 3.2 | 11.3 | 0.00 | 0.00 | 0.00 | 67 | 1016.4 |
| 20260508060107 | 10 | 208 | 1.6 | 9.7 | 0.00 | 0.00 | 0.00 | 67 | 1016.6 |
| 20260508054603 | 10 | 180 | 3.2 | 11.3 | 0.00 | 0.00 | 0.00 | 68 | 1016.7 |
| 20260508053048 | 10 | 170 | 1.6 | 8.0 | 0.00 | 0.00 | 0.00 | 69 | 1016.8 |
| 20260508051550 | 10 | 210 | 3.2 | 9.7 | 0.00 | 0.00 | 0.00 | 70 | 1016.6 |
| 20260508050052 | 10 | 129 | 4.8 | 9.7 | 0.00 | 0.00 | 0.00 | 71 | 1016.8 |
| 20260508044549 | 9 | 158 | 4.8 | 11.3 | 0.00 | 0.00 | 0.00 | 72 | 1016.7 |
| 20260508043051 | 9 | 164 | 4.8 | 11.3 | 0.00 | 0.00 | 0.00 | 73 | 1016.7 |
| 20260508041552 | 9 | 205 | 3.2 | 11.3 | 0.00 | 0.00 | 0.00 | 73 | 1016.8 |
| 20260508040100 | 9 | 179 | 3.2 | 9.7 | 0.00 | 0.00 | 0.00 | 73 | 1016.6 |
| 20260508034551 | 10 | 0 | 3.2 | 11.3 | 0.00 | 0.00 | 0.00 | 73 | 1016.4 |